Location: Cedar Springs
(43.2230°N, 85.5510°W)
Time: 04:09:49
(UTC-04:00)

Cosmos 2278 Rocket - Visible Passes

Search period start: 30 August 2014 00:00
Search period end: 09 September 2014 00:00
Orbit: 840 x 847 km, 71.0° (Epoch: 29 August)

Date Brightness Start Highest point End Pass type
(mag) Time Alt. Az. Time Alt. Az. Time Alt. Az.
30 Aug 2.1 21:41:30 10° SSW 21:47:07 71° ESE 21:52:47 10° NNE visible
30 Aug 4.6 23:27:36 10° W 23:31:47 21° NW 23:36:00 10° N visible
31 Aug 3.8 06:34:48 10° NNW 06:40:09 41° ENE 06:45:27 10° SE visible
31 Aug 2.1 21:27:03 10° SSW 21:32:40 68° ESE 21:38:18 10° NNE visible
31 Aug 4.6 23:13:01 10° W 23:17:17 21° NW 23:21:35 10° N visible
01 Sep 3.8 06:20:21 10° NNW 06:25:40 39° ENE 06:30:56 10° SE visible
01 Sep 2.2 21:12:37 10° S 21:18:13 65° ESE 21:23:50 10° NNE visible
01 Sep 4.6 22:58:27 10° W 23:02:48 22° NW 23:07:10 10° N visible
02 Sep 3.9 06:05:55 10° N 06:11:12 38° ENE 06:16:25 10° SE visible
02 Sep 2.2 20:58:11 10° S 21:03:45 63° ESE 21:09:22 10° NNE visible
02 Sep 4.6 22:43:53 10° WSW 22:48:19 23° NW 22:52:45 10° N visible
03 Sep 3.9 05:51:29 10° N 05:56:43 37° ENE 06:01:54 10° ESE visible
03 Sep 2.3 20:43:45 10° S 20:49:18 60° ESE 20:54:54 10° NNE visible
03 Sep 4.5 22:29:19 10° WSW 22:33:49 24° NW 22:38:20 10° N visible
04 Sep 3.9 05:37:03 10° N 05:42:14 35° NE 05:47:23 10° ESE visible
04 Sep 4.5 22:14:46 10° WSW 22:19:20 25° NW 22:23:55 10° N visible
05 Sep 3.9 05:22:37 10° N 05:27:46 34° NE 05:32:52 10° ESE visible
05 Sep 4.5 22:00:13 10° WSW 22:04:51 25° NW 22:09:30 10° N visible
06 Sep 4.0 05:08:11 10° N 05:13:17 33° NE 05:18:20 10° ESE visible
06 Sep 4.5 21:45:40 10° WSW 21:50:22 26° NW 21:55:05 10° N visible
07 Sep 4.0 04:53:45 10° N 04:58:48 32° NE 05:03:48 10° ESE visible
07 Sep 2.6 06:37:42 10° NW 06:42:59 41° WSW 06:48:13 10° S visible
07 Sep 4.4 21:31:07 10° WSW 21:35:53 27° NW 21:40:40 10° N visible
08 Sep 4.0 04:39:20 10° N 04:44:19 31° NE 04:49:17 10° ESE visible
08 Sep 2.5 06:23:13 10° NW 06:28:32 43° WSW 06:33:49 10° S visible
08 Sep 4.4 21:16:35 10° WSW 21:21:24 28° NW 21:26:15 10° N visible
